Regional Weather Roundup
Issued by NWS

Home | Current Version | Previous Version | Graphics & Text | Print | Product List | Glossary On
Versions: 1 2 3 4 5 6 7 8 9 10 11 12 13 14 15 16 17 18 19 20 21 22 23 24 25 26 27 28 29 30 31 32 33 34 35 36 37 38 39 40 41 42 43 44 45 46 47 48 49 50
000
ASUS43 KIND 200659
RWRIN

WEATHER ROUNDUP FOR INDIANA
NATIONAL WEATHER SERVICE INDIANAPOLIS IN
300 AM EDT SAT SEP 20 2014

NOTE: "FAIR" INDICATES FEW OR NO CLOUDS BELOW 12,000 FEET WITH NO
SIGNIFICANT WEATHER AND/OR OBSTRUCTIONS TO VISIBILITY.

* - STATION DOES NOT REPORT WEATHER SUCH AS PRECIPITATION OR FOG.

+ - STATION NOT QUALITY CONTROLLED BY THE NATIONAL WEATHER SERVICE.
    USE DATA WITH CAUTION...ESPECIALLY DEWPOINT AND RELATIVE
    HUMIDITY OBSERVATIONS.

INZ001>003-010>013-019-020-200800-
NORTHWEST INDIANA

CITY           SKY/WX    TMP DP  RH WIND       PRES   REMARKS
KNOX *+        CLEAR     56  49  76 S5        29.96F
VALPARAISO     CLEAR     59  50  72 SW7       29.97S

$$

LMZ046-743>745-200800-
SOUTHERN LAKE MICHIGAN

STATION/POSITION TIME  TEMP WIND        PRES
                       AIR  DIR/SP/G
                 (UTC) (F)  (DEG/KT/KT) (MB)
MICHIGAN CITY    0600   62  160/ 12/ 15   N/A

$$

INZ004-005-014>016-021>024-200800-
NORTH CENTRAL INDIANA

CITY           SKY/WX    TMP DP  RH WIND       PRES   REMARKS
GOSHEN         CLEAR     58  49  72 S8        29.98F
SOUTH BEND     CLEAR     59  48  67 SW6       29.98S
WARSAW +       CLEAR     55  50  82 CALM      29.99F

$$

INZ006>009-017-018-025>027-200800-
NORTHEAST INDIANA

CITY           SKY/WX    TMP DP  RH WIND       PRES   REMARKS
ANGOLA *+      CLEAR     54  46  76 S5        30.00F
FORT WAYNE     PTCLDY    52  47  83 S8        30.02F

$$

INZ028-029-035-036-043>045-051>053-200800-
WEST CENTRAL INDIANA

CITY           SKY/WX    TMP DP  RH WIND       PRES   REMARKS
GREENCASTLE +  CLEAR     54  50  87 CALM      30.03F
LAFAYETTE      CLEAR     56  50  80 CALM      29.99F
TERRE HAUTE    CLEAR     53  50  89 CALM      30.02F

$$

INZ030>032-037>040-046>048-054>057-064-065-200800-
CENTRAL INDIANA

CITY           SKY/WX    TMP DP  RH WIND       PRES   REMARKS
FRANKFORT +    CLEAR     53  53 100 CALM      30.02F
INDIANAPOLIS   CLEAR     56  50  80 SE6       30.02F
-EAGLE CREEK   CLEAR     54  50  86 CALM      30.02F FOG
KOKOMO *+      CLEAR     54  48  82 S9        30.02F
MT COMFORT *+  CLEAR     57  48  72 S7        30.04F
SHELBYVILLE    CLEAR     56  50  80 S5        30.04F

$$

INZ033-034-041-042-049-050-058-059-200800-
EAST CENTRAL INDIANA

CITY           SKY/WX    TMP DP  RH WIND       PRES   REMARKS
MUNCIE         CLEAR     58  48  69 S7        30.03F

$$

INZ060-061-067>069-081>083-085>088-200800-
SOUTHWEST INDIANA

CITY           SKY/WX    TMP DP  RH WIND       PRES   REMARKS
EVANSVILLE     CLEAR     59  56  89 CALM      30.03F

$$

INZ062-063-066-070>080-084-089>092-200800-
SOUTH CENTRAL AND SOUTHEAST INDIANA

CITY           SKY/WX    TMP DP  RH WIND       PRES   REMARKS
BLOOMINGTON    CLEAR     58  54  86 SE6       30.04F

$$



USA.gov is the U.S. government's official web portal to all federal, state and local government web resources and services.